Rugby, ND

9:25 AM CDT on March 28, 2017 (GMT -0500)
Rugby Municipal

Weather History for KRUG - September, 2012

Change the Weather History Date:

Wednesday, September 5, 2012

  Actual Average Record
Temperature  
Mean Temperature 60 °F -  
Max Temperature 73 °F 74 °F 98 °F (1978)
Min Temperature 46 °F 48 °F 30 °F (1965)
Degree Days  
Heating Degree Days 6    
Growing Degree Days 10 (Base 50)    
Moisture  
Dew Point 44 °F    
Average Humidity 58    
Maximum Humidity 87    
Minimum Humidity 31    
Precipitation  
Precipitation 0.00 in - - ()
Sea Level Pressure  
Sea Level Pressure 29.89 in    
Wind  
Wind Speed 10 mph (WNW)    
Max Wind Speed 23 mph    
Max Gust Speed 32 mph    
Visibility 10 miles    
Events      
Averages and records for this station are not official NWS values.
T = Trace of Precipitation, MM = Missing Value Source: NWS Daily Summary

Daily Weather History Graph

Daily Weather History Graph

Search for Another Location

Airport or City:

Trip Planner

Search our weather history database for the weather conditions in past years. The results will help you decide how hot, cold, wet, or windy it might be!

Date:

Astronomy

Sep. 05, 2012 Rise Set
Actual Time 7:03 AM CDT 8:12 PM CDT
Civil Twilight 6:31 AM CDT 8:44 PM CDT
Nautical Twilight 5:53 AM CDT 9:22 PM CDT
Astronomical Twilight 5:11 AM CDT 10:03 PM CDT
Moon 10:12 PM CDT (9/5) 12:39 PM CDT (9/5)
Length of Visible Light 14h 12m
Length of Day
13h 08m
Waning Gibbous, 76% of the Moon is Illuminated
Sep 5
Waning Gibbous
Sep 8
Last Quarter
Sep 15
New
Sep 22
First Quarter
Sep 29
Full

Hourly Weather History & Observations

Time (CDT) Temp. Windchill Dew Point Humidity Pressure Visibility Wind Dir Wind Speed Gust Speed Precip Events Conditions
12:15 AM 59.0 °F - 39.2 °F 48% 29.89 in 10.0 mi WNW 8.1 mph - N/A   Mostly Cloudy
12:35 AM 59.0 °F - 39.2 °F 48% 29.89 in 10.0 mi WNW 10.4 mph - N/A   Mostly Cloudy
12:55 AM 57.2 °F - 41.0 °F 55% 29.88 in 10.0 mi WNW 8.1 mph - N/A   Mostly Cloudy
1:15 AM 57.2 °F - 39.2 °F 51% 29.89 in 10.0 mi West 9.2 mph - N/A   Mostly Cloudy
1:35 AM 57.2 °F - 41.0 °F 55% 29.89 in 10.0 mi West 8.1 mph - N/A   Mostly Cloudy
1:55 AM 55.4 °F - 41.0 °F 58% 29.89 in 10.0 mi West 8.1 mph - N/A   Overcast
2:15 AM 55.4 °F - 41.0 °F 58% 29.89 in 10.0 mi West 6.9 mph - N/A   Overcast
2:35 AM 57.2 °F - 41.0 °F 55% 29.89 in 10.0 mi West 9.2 mph - N/A   Overcast
2:55 AM 55.4 °F - 41.0 °F 58% 29.90 in 10.0 mi West 9.2 mph - N/A   Mostly Cloudy
3:15 AM 55.4 °F - 41.0 °F 58% 29.90 in 10.0 mi West 9.2 mph - N/A   Mostly Cloudy
3:35 AM 53.6 °F - 41.0 °F 62% 29.91 in 10.0 mi West 10.4 mph - N/A   Scattered Clouds
3:55 AM 51.8 °F - 41.0 °F 67% 29.91 in 10.0 mi West 9.2 mph - N/A   Partly Cloudy
4:15 AM 51.8 °F - 42.8 °F 71% 29.91 in 10.0 mi West 8.1 mph - N/A   Partly Cloudy
4:35 AM 48.2 °F - 41.0 °F 76% 29.92 in 10.0 mi West 9.2 mph - N/A   Clear
4:55 AM 48.2 °F - 41.0 °F 76% 29.92 in 10.0 mi West 10.4 mph - N/A   Mostly Cloudy
5:15 AM 48.2 °F - 42.8 °F 82% 29.92 in 10.0 mi West 5.8 mph - N/A   Scattered Clouds
5:35 AM 46.4 °F 42.9 °F 41.0 °F 81% 29.93 in 10.0 mi West 6.9 mph - N/A   Clear
5:55 AM 46.4 °F 42.4 °F 41.0 °F 81% 29.93 in 10.0 mi West 8.1 mph - N/A   Clear
6:15 AM 46.4 °F 43.5 °F 41.0 °F 81% 29.93 in 10.0 mi West 5.8 mph - N/A   Clear
6:35 AM 46.4 °F 43.5 °F 41.0 °F 81% 29.93 in 10.0 mi WSW 5.8 mph - N/A   Mostly Cloudy
6:55 AM 46.4 °F 43.5 °F 42.8 °F 87% 29.93 in 10.0 mi West 5.8 mph - N/A   Overcast
7:15 AM 46.4 °F 42.4 °F 42.8 °F 87% 29.93 in 10.0 mi WNW 8.1 mph - N/A   Scattered Clouds
7:35 AM 46.4 °F 42.4 °F 42.8 °F 87% 29.93 in 10.0 mi West 8.1 mph - N/A   Clear
7:55 AM 48.2 °F - 44.6 °F 87% 29.93 in 10.0 mi West 10.4 mph - N/A   Partly Cloudy
8:15 AM 51.8 °F - 46.4 °F 82% 29.93 in 10.0 mi West 13.8 mph - N/A   Scattered Clouds
8:35 AM 53.6 °F - 46.4 °F 77% 29.93 in 10.0 mi West 13.8 mph 18.4 mph N/A   Partly Cloudy
8:55 AM 53.6 °F - 46.4 °F 77% 29.93 in 10.0 mi West 11.5 mph - N/A   Clear
9:15 AM 55.4 °F - 46.4 °F 72% 29.92 in 10.0 mi West 13.8 mph - N/A   Clear
9:35 AM 57.2 °F - 46.4 °F 67% 29.92 in 10.0 mi WNW 17.3 mph - N/A   Clear
9:55 AM 57.2 °F - 46.4 °F 67% 29.92 in 10.0 mi West 17.3 mph 23.0 mph N/A   Clear
10:15 AM 59.0 °F - 46.4 °F 63% 29.92 in 10.0 mi WNW 15.0 mph 19.6 mph N/A   Clear
10:35 AM 59.0 °F - 46.4 °F 63% 29.92 in 10.0 mi WNW 16.1 mph 21.9 mph N/A   Clear
10:55 AM 60.8 °F - 48.2 °F 63% 29.92 in 10.0 mi WNW 18.4 mph - N/A   Clear
11:15 AM 62.6 °F - 48.2 °F 59% 29.91 in 10.0 mi WNW 17.3 mph 21.9 mph N/A   Clear
11:35 AM 64.4 °F - 46.4 °F 52% 29.90 in 10.0 mi WNW 16.1 mph 25.3 mph N/A   Clear
11:55 AM 66.2 °F - 46.4 °F 49% 29.90 in 10.0 mi NW 17.3 mph 23.0 mph N/A   Partly Cloudy
12:15 PM 66.2 °F - 46.4 °F 49% 29.90 in 10.0 mi WNW 20.7 mph 25.3 mph N/A   Partly Cloudy
12:35 PM 66.2 °F - 46.4 °F 49% 29.89 in 10.0 mi WNW 19.6 mph 26.5 mph N/A   Scattered Clouds
1:15 PM 68.0 °F - 46.4 °F 46% 29.88 in 10.0 mi NW 18.4 mph 25.3 mph N/A   Scattered Clouds
1:35 PM 71.6 °F - 46.4 °F 41% 29.88 in 10.0 mi WNW 17.3 mph 21.9 mph N/A   Scattered Clouds
1:55 PM 68.0 °F - 44.6 °F 43% 29.88 in 10.0 mi WNW 17.3 mph 25.3 mph N/A   Scattered Clouds
2:15 PM 71.6 °F - 44.6 °F 38% 29.87 in 10.0 mi WNW 19.6 mph 25.3 mph N/A   Partly Cloudy
2:35 PM 71.6 °F - 44.6 °F 38% 29.87 in 10.0 mi NW 16.1 mph 27.6 mph N/A   Partly Cloudy
2:55 PM 73.4 °F - 42.8 °F 33% 29.86 in 10.0 mi West 23.0 mph 32.2 mph N/A   Scattered Clouds
3:15 PM 73.4 °F - 44.6 °F 36% 29.86 in 10.0 mi NW 21.9 mph 26.5 mph N/A   Partly Cloudy
3:35 PM 73.4 °F - 41.0 °F 31% 29.86 in 10.0 mi West 21.9 mph 29.9 mph N/A   Partly Cloudy
3:55 PM 73.4 °F - 42.8 °F 33% 29.86 in 10.0 mi WNW 20.7 mph 28.8 mph N/A   Clear
4:15 PM 73.4 °F - 41.0 °F 31% 29.86 in 10.0 mi WNW 19.6 mph 27.6 mph N/A   Clear
4:35 PM 71.6 °F - 41.0 °F 33% 29.86 in 10.0 mi WNW 20.7 mph 26.5 mph N/A   Partly Cloudy
4:55 PM 71.6 °F - 41.0 °F 33% 29.86 in 10.0 mi WNW 13.8 mph - N/A   Clear
5:15 PM 73.4 °F - 41.0 °F 31% 29.86 in 10.0 mi NW 18.4 mph 24.2 mph N/A   Clear
5:35 PM 71.6 °F - 41.0 °F 33% 29.86 in 10.0 mi WNW 15.0 mph - N/A   Clear
5:55 PM 69.8 °F - 41.0 °F 35% 29.86 in 10.0 mi NW 17.3 mph 23.0 mph N/A   Scattered Clouds
6:15 PM 69.8 °F - 41.0 °F 35% 29.86 in 10.0 mi NW 10.4 mph - N/A   Partly Cloudy
6:35 PM 69.8 °F - 42.8 °F 38% 29.86 in 10.0 mi NW 11.5 mph - N/A   Clear
6:55 PM 69.8 °F - 42.8 °F 38% 29.87 in 10.0 mi NW 10.4 mph - N/A   Clear
7:15 PM 68.0 °F - 42.8 °F 40% 29.87 in 10.0 mi NNW 8.1 mph - N/A   Clear
7:35 PM 66.2 °F - 44.6 °F 46% 29.88 in 10.0 mi NW 8.1 mph - N/A   Clear
7:55 PM 64.4 °F - 44.6 °F 49% 29.87 in 10.0 mi NW 5.8 mph - N/A   Clear
8:15 PM 62.6 °F - 44.6 °F 52% 29.88 in 10.0 mi NW 4.6 mph - N/A   Clear
8:35 PM 60.8 °F - 44.6 °F 55% 29.88 in 10.0 mi NW 4.6 mph - N/A   Clear
8:55 PM 59.0 °F - 44.6 °F 59% 29.88 in 10.0 mi NW 4.6 mph - N/A   Clear
9:15 PM 57.2 °F - 44.6 °F 63% 29.89 in 10.0 mi Calm Calm - N/A   Clear
9:35 PM 57.2 °F - 44.6 °F 63% 29.89 in 10.0 mi Calm Calm - N/A   Clear
9:55 PM 57.2 °F - 44.6 °F 63% 29.89 in 10.0 mi WSW 3.5 mph - N/A   Partly Cloudy
10:15 PM 57.2 °F - 46.4 °F 67% 29.89 in 10.0 mi West 3.5 mph - N/A   Scattered Clouds
10:35 PM 55.4 °F - 46.4 °F 72% 29.89 in 10.0 mi WSW 3.5 mph - N/A   Mostly Cloudy
10:55 PM 55.4 °F - 46.4 °F 72% 29.89 in 10.0 mi Calm Calm - N/A   Mostly Cloudy
11:15 PM 55.4 °F - 46.4 °F 72% 29.89 in 10.0 mi Calm Calm - N/A   Mostly Cloudy
11:35 PM 57.2 °F - 46.4 °F 67% 29.89 in 10.0 mi South 3.5 mph - N/A   Mostly Cloudy
11:55 PM 57.2 °F - 46.4 °F 67% 29.90 in 10.0 mi SSW 4.6 mph - N/A   Mostly Cloudy